Weather History for Carmi, IL

Change the Weather History Date:

Thursday, December 6, 2012

  Actual Average (KEVV) Record (KEVV)
Temperature  
Mean Temperature 42 °F 38 °F  
Max Temperature 52 °F 47 °F 73 °F (1998)
Min Temperature 33 °F 29 °F 6 °F (1984)
Degree Days  
Heating Degree Days 22 27  
Month to date heating degree days 157  
Since 1 July heating degree days 1018  
Cooling Degree Days 0 0  
Month to date cooling degree days 0  
Year to date cooling degree days 1397  
Moisture  
Dew Point 42 °F    
Average Humidity 87    
Maximum Humidity 97    
Minimum Humidity 73    
Precipitation  
Precipitation 0.03 in 0.13 in 1.34 in (1951)
Month to date precipitation 0.78  
Year to date precipitation 42.33  
Snow  
Snow 0.00 in 0.10 in 9.00 in (1999)
Month to date snowfall 0.3  
Since 1 July snowfall 0.6  
Snow Depth -    
Sea Level Pressure  
Sea Level Pressure 30.06 in    
Wind  
Wind Speed 4 mph (ESE)    
Max Wind Speed 9 mph    
Max Gust Speed -    
Visibility 8 miles    
Events      
T = Trace of Precipitation, MM = Missing Value Source: NWS Daily Summary

Daily Weather History Graph

Daily Weather History Graph

Search for Another Location

Airport:

Trip Planner

Search our weather history database for the weather conditions in past years. The results will help you decide how hot, cold, wet, or windy it might be!

Date:

Astronomy

Dec. 06, 2012 Rise Set
Actual Time 6:54 AM CST 4:32 PM CST
Civil Twilight 6:25 AM CST 5:01 PM CST
Nautical Twilight 5:52 AM CST 5:34 PM CST
Astronomical Twilight 5:20 AM CST 6:06 PM CST
Moon No Moon Rise 11:52 AM CST (12/6)
Length of Visible Light 10h 36m
Length of Day
9h 37m
Waning Gibbous, 49% of the Moon is Illuminated
Dec 6
Waning Gibbous
Dec 13
New
Dec 19
First Quarter
Dec 28
Full
Jan 4
Last Quarter

Hourly Weather History & Observations

Time (CST) Temp. Windchill Dew Point Humidity Pressure Visibility Wind Dir Wind Speed Gust Speed Precip Events Conditions
12:15 AM 38.1 °F 33.7 °F 35.1 °F 89% 30.17 in 10.0 mi ENE 5.8 mph - N/A   Clear
12:35 AM 37.8 °F - 34.7 °F 89% 30.16 in 10.0 mi Calm Calm - N/A   Clear
12:55 AM 39.2 °F - 35.1 °F 85% 30.17 in 10.0 mi Calm Calm - N/A   Clear
1:15 AM 37.4 °F 34.9 °F 33.8 °F 87% 30.17 in 10.0 mi ENE 3.5 mph - N/A   Clear
1:35 AM 36.9 °F 31.4 °F 34.0 °F 89% 30.16 in 10.0 mi ENE 6.9 mph - N/A   Clear
1:55 AM 36.5 °F 32.7 °F 33.8 °F 90% 30.17 in 10.0 mi ENE 4.6 mph - N/A   Clear
2:15 AM 36.5 °F 31.8 °F 33.8 °F 90% 30.16 in 10.0 mi ENE 5.8 mph - N/A   Clear
2:35 AM 36.0 °F 31.1 °F 33.3 °F 90% 30.16 in 10.0 mi ENE 5.8 mph - N/A   Clear
2:55 AM 35.4 °F 30.5 °F 33.6 °F 93% 30.15 in 10.0 mi ENE 5.8 mph - N/A   Clear
3:15 AM 35.6 °F 30.7 °F 33.4 °F 92% 30.15 in 10.0 mi ENE 5.8 mph - N/A   Clear
3:35 AM 35.8 °F 30.9 °F 33.8 °F 92% 30.15 in 10.0 mi NE 5.8 mph - N/A   Clear
3:55 AM 33.8 °F 29.6 °F 32.4 °F 94% 30.14 in 10.0 mi NE 4.6 mph - N/A   Clear
4:15 AM 34.3 °F 30.2 °F 33.1 °F 95% 30.14 in 10.0 mi NNE 4.6 mph - N/A   Clear
4:35 AM 34.3 °F 30.2 °F 33.1 °F 95% 30.13 in 7.0 mi NNE 4.6 mph - N/A   Clear
4:55 AM 34.0 °F 29.8 °F 32.7 °F 95% 30.13 in 7.0 mi NE 4.6 mph - N/A   Clear
5:15 AM 34.3 °F 30.2 °F 32.9 °F 94% 30.13 in 10.0 mi NE 4.6 mph - N/A   Clear
5:35 AM 34.2 °F 29.0 °F 32.9 °F 95% 30.13 in 10.0 mi ENE 5.8 mph - N/A   Clear
6:15 AM 34.5 °F 30.4 °F 33.1 °F 94% 30.13 in 10.0 mi ENE 4.6 mph - N/A   Clear
6:35 AM 34.9 °F 32.0 °F 33.3 °F 94% 30.13 in 7.0 mi NE 3.5 mph - N/A   Clear
6:55 AM 34.2 °F 30.0 °F 32.9 °F 95% 30.13 in 10.0 mi NE 4.6 mph - N/A   Scattered Clouds
7:15 AM 34.5 °F 30.4 °F 32.9 °F 94% 30.12 in 7.0 mi ENE 4.6 mph - N/A   Scattered Clouds
7:35 AM 35.4 °F 30.5 °F 33.8 °F 94% 30.12 in 7.0 mi ENE 5.8 mph - N/A   Mostly Cloudy
7:55 AM 36.1 °F 33.5 °F 34.7 °F 94% 30.11 in 7.0 mi ENE 3.5 mph - N/A   Overcast
8:15 AM 38.5 °F 36.1 °F 36.5 °F 93% 30.11 in 7.0 mi East 3.5 mph - N/A   Overcast
8:35 AM 40.1 °F 38.0 °F 37.2 °F 89% 30.11 in 7.0 mi East 3.5 mph - N/A   Overcast
8:55 AM 41.7 °F 36.7 °F 38.5 °F 88% 30.10 in 7.0 mi ESE 8.1 mph - N/A   Overcast
9:15 AM 43.2 °F 38.4 °F 38.8 °F 85% 30.10 in 7.0 mi ESE 8.1 mph - N/A   Mostly Cloudy
9:35 AM 45.0 °F 41.2 °F 40.3 °F 84% 30.10 in - ESE 6.9 mph - 0.03 in   Mostly Cloudy
9:55 AM 45.1 °F 41.4 °F 40.1 °F 82% 30.10 in 7.0 mi SE 6.9 mph - 0.03 in   Mostly Cloudy
10:15 AM 46.0 °F 43.9 °F 40.8 °F 82% 30.10 in 7.0 mi SE 4.6 mph - N/A   Mostly Cloudy
10:35 AM 46.9 °F - 40.1 °F 77% 30.08 in 10.0 mi SSE 6.9 mph - N/A   Overcast
10:55 AM 48.0 °F - 41.2 °F 77% 30.07 in 10.0 mi SE 5.8 mph - N/A   Overcast
11:15 AM 48.4 °F - 41.4 °F 77% 30.06 in 10.0 mi SSE 6.9 mph - N/A   Overcast
11:35 AM 49.1 °F - 41.5 °F 75% 30.05 in 10.0 mi SSE 4.6 mph - N/A   Overcast
11:55 AM 49.6 °F - 42.1 °F 75% 30.04 in 10.0 mi SSE 4.6 mph - N/A   Overcast
12:15 PM 49.6 °F - 42.1 °F 75% 30.03 in 7.0 mi SSE 3.5 mph - N/A   Overcast
12:35 PM 50.0 °F - 42.4 °F 75% 30.02 in 10.0 mi Calm Calm - N/A   Overcast
12:55 PM 50.5 °F - 42.6 °F 74% 30.02 in 7.0 mi Calm Calm - N/A   Overcast
1:15 PM 50.9 °F - 43.2 °F 75% 30.01 in 7.0 mi SE 4.6 mph - N/A   Overcast
1:35 PM 52.0 °F - 43.5 °F 73% 30.00 in 7.0 mi ESE 4.6 mph - N/A   Overcast
1:55 PM 52.2 °F - 43.7 °F 73% 30.00 in 10.0 mi ESE 5.8 mph - N/A   Overcast
2:15 PM 51.8 °F - 44.1 °F 75% 30.00 in 10.0 mi SE 4.6 mph - N/A   Overcast
2:35 PM 52.2 °F - 44.8 °F 76% 30.00 in 7.0 mi ESE 5.8 mph - N/A   Overcast
2:55 PM 52.3 °F - 45.1 °F 76% 30.00 in 10.0 mi SE 5.8 mph - N/A   Overcast
3:15 PM 52.2 °F - 45.0 °F 76% 30.00 in 10.0 mi SE 4.6 mph - N/A   Overcast
3:35 PM 52.5 °F - 46.2 °F 79% 30.00 in 7.0 mi SSE 3.5 mph - N/A   Overcast
3:55 PM 52.7 °F - 47.1 °F 81% 29.99 in 7.0 mi ESE 4.6 mph - N/A   Overcast
4:15 PM 51.8 °F - 46.9 °F 83% 29.98 in 5.0 mi ESE 5.8 mph - N/A   Haze
4:35 PM 51.3 °F - 47.3 °F 86% 29.98 in 10.0 mi ESE 5.8 mph - N/A   Overcast
4:55 PM 51.3 °F - 46.9 °F 85% 29.98 in 7.0 mi SE 6.9 mph - N/A   Overcast
5:15 PM 51.1 °F - 47.3 °F 87% 29.98 in 10.0 mi ESE 4.6 mph - N/A   Overcast
5:35 PM 50.9 °F - 47.3 °F 87% 29.98 in 10.0 mi Calm Calm - N/A   Overcast
5:55 PM 51.3 °F - 47.3 °F 86% 29.98 in 10.0 mi East 3.5 mph - N/A   Overcast
6:15 PM 50.9 °F - 47.5 °F 88% 29.98 in 7.0 mi ESE 6.9 mph - N/A   Overcast
6:35 PM 50.9 °F - 47.7 °F 89% 29.97 in 10.0 mi ESE 5.8 mph - N/A   Overcast
6:55 PM 51.3 °F - 48.4 °F 90% 29.98 in 7.0 mi SSE 6.9 mph - N/A   Overcast
7:15 PM 51.1 °F - 48.6 °F 91% 29.98 in 7.0 mi SE 6.9 mph - N/A   Overcast
7:35 PM 51.8 °F - 49.8 °F 93% 29.98 in 5.0 mi SE 9.2 mph - N/A   Overcast
7:55 PM 51.6 °F - 50.0 °F 94% 29.98 in 5.0 mi SE 6.9 mph - N/A   Overcast
8:35 PM 51.3 °F - 50.0 °F 95% 29.98 in 4.0 mi South 4.6 mph - N/A   Overcast
8:55 PM 51.3 °F - 50.0 °F 95% 29.97 in 4.0 mi South 3.5 mph - N/A   Overcast
9:15 PM 51.3 °F - 50.0 °F 95% 29.97 in 4.0 mi Calm Calm - N/A   Overcast
9:35 PM 51.1 °F - 49.8 °F 95% 29.97 in 4.0 mi SE 3.5 mph - N/A   Overcast
9:55 PM 51.1 °F - 50.0 °F 96% 29.98 in 3.0 mi Calm Calm - N/A   Overcast
10:15 PM 50.9 °F - 50.0 °F 97% 29.98 in 4.0 mi Calm Calm - N/A   Overcast
10:35 PM 50.9 °F - 49.8 °F 96% 29.98 in 2.5 mi Calm Calm - N/A   Overcast
10:55 PM 51.1 °F - 50.0 °F 96% 29.98 in 3.0 mi SE 4.6 mph - N/A   Overcast
11:15 PM 51.3 °F - 50.2 °F 96% 29.98 in 3.0 mi SE 3.5 mph - N/A   Overcast
11:35 PM 51.3 °F - 50.2 °F 96% 29.97 in 3.0 mi SE 4.6 mph - N/A   Overcast
11:55 PM 51.3 °F - 50.2 °F 96% 29.97 in 3.0 mi Calm Calm - N/A   Overcast